San Antonio Stinson, TX

4:33 PM CDT on April 27, 2017 (GMT -0500)
Stinson Municipal

Weather History for KSSF - March, 2012

Change the Weather History Date:

Sunday, March 25, 2012

  Actual Average Record
Temperature  
Mean Temperature 70 °F -  
Max Temperature 82 °F 69 °F 88 °F (2011)
Min Temperature 59 °F 51 °F 36 °F (2006)
Cooling Degree Days 6    
Growing Degree Days 20 (Base 50)    
Moisture  
Dew Point 62 °F    
Average Humidity 84    
Maximum Humidity 100    
Minimum Humidity 45    
Precipitation  
Precipitation 0.00 in - - ()
Sea Level Pressure  
Sea Level Pressure 30.04 in    
Wind  
Wind Speed 2 mph (SE)    
Max Wind Speed 9 mph    
Max Gust Speed -    
Visibility 6 miles    
Events      
Averages and records for this station are not official NWS values.
T = Trace of Precipitation, MM = Missing Value Source: NWS Daily Summary

Daily Weather History Graph

Daily Weather History Graph

Search for Another Location

Airport or City:

Trip Planner

Search our weather history database for the weather conditions in past years. The results will help you decide how hot, cold, wet, or windy it might be!

Date:

Astronomy

Mar. 25, 2012 Rise Set
Actual Time 7:31 AM CDT 7:48 PM CDT
Civil Twilight 7:07 AM CDT 8:12 PM CDT
Nautical Twilight 6:39 AM CDT 8:40 PM CDT
Astronomical Twilight 6:11 AM CDT 9:08 PM CDT
Moon 9:01 AM CDT (3/25) 10:46 PM CDT (3/25)
Length of Visible Light 13h 04m
Length of Day
12h 17m
Waxing Crescent, 9% of the Moon is Illuminated
Mar 25
Waxing Crescent
Mar 30
First Quarter
Apr 6
Full
Apr 13
Last Quarter
Apr 21
New

Hourly Weather History & Observations

Time (CDT) Temp. Heat Index Dew Point Humidity Pressure Visibility Wind Dir Wind Speed Gust Speed Precip Events Conditions
12:53 AM 63.0 °F - 61.0 °F 93% - 6.0 mi Calm Calm - N/A   Clear
1:53 AM 62.1 °F - 61.0 °F 96% - 7.0 mi Calm Calm - N/A   Clear
2:29 AM 59.0 °F - 59.0 °F 100% - 5.0 mi Calm Calm - N/A   Scattered Clouds
2:53 AM 61.0 °F - 59.0 °F 93% - 8.0 mi Calm Calm - N/A   Partly Cloudy
3:19 AM 60.8 °F - 59.0 °F 94% - 5.0 mi Calm Calm - N/A   Mostly Cloudy
3:53 AM 64.0 °F - 63.0 °F 96% - 3.0 mi South 4.6 mph - N/A   Overcast
3:59 AM 64.4 °F - 64.4 °F 100% - 1.8 mi South 5.8 mph - N/A   Overcast
4:07 AM 64.4 °F - 64.4 °F 100% - 1.8 mi South 4.6 mph - N/A   Overcast
4:44 AM 62.6 °F - 62.6 °F 100% - 0.8 mi SSE 3.5 mph - N/A   Mist
4:53 AM 63.0 °F - 63.0 °F 100% - 1.2 mi SSE 4.6 mph - N/A   Overcast
5:27 AM 62.6 °F - 62.6 °F 100% - 0.8 mi South 4.6 mph - N/A   Overcast
6:44 AM 64.4 °F - 64.4 °F 100% - 2.5 mi South 3.5 mph - N/A   Overcast
6:47 AM 64.4 °F - 62.6 °F 94% - 3.0 mi Calm Calm - N/A   Overcast
6:53 AM 64.0 °F - 64.0 °F 100% - 4.0 mi Calm Calm - N/A   Overcast
7:07 AM 64.4 °F - 62.6 °F 94% 30.03 in 5.0 mi SSE 3.5 mph - N/A   Overcast
7:38 AM 64.4 °F - 64.4 °F 100% 30.03 in 2.0 mi WSW 3.5 mph - N/A   Overcast
7:53 AM 64.0 °F - 64.0 °F 100% 30.01 in 1.0 mi Calm Calm - N/A   Overcast
8:39 AM 64.4 °F - 64.4 °F 100% 30.07 in 2.5 mi Calm Calm - N/A   Overcast
8:48 AM 64.4 °F - 64.4 °F 100% 30.07 in 3.0 mi SSE 3.5 mph - N/A   Overcast
8:53 AM 64.9 °F - 63.0 °F 93% 30.06 in 3.0 mi SSE 3.5 mph - N/A   Overcast
9:11 AM 64.4 °F - 62.6 °F 94% 30.08 in 4.0 mi Calm Calm - N/A   Overcast
9:53 AM 66.0 °F - 63.0 °F 90% 30.07 in 5.0 mi Calm Calm - N/A   Overcast
10:30 AM 66.2 °F - 60.8 °F 83% 30.10 in 8.0 mi Calm Calm - N/A   Overcast
11:37 AM 71.6 °F - 62.6 °F 73% 30.10 in 10.0 mi Calm Calm - 0.00 in   Scattered Clouds
11:53 AM 70.0 °F - 61.0 °F 73% 30.09 in 10.0 mi Calm Calm - 0.00 in   Partly Cloudy
12:53 PM 75.9 °F - 62.1 °F 62% 30.09 in 10.0 mi Variable 3.5 mph - N/A   Clear
12:57 PM 75.2 °F - 62.6 °F 65% 30.07 in 10.0 mi East 6.9 mph - N/A   Clear
2:53 PM 79.0 °F - 60.1 °F 52% 30.03 in 10.0 mi ESE 3.5 mph - N/A   Clear
3:53 PM 81.0 °F 81.9 °F 62.1 °F 52% - 10.0 mi Variable 3.5 mph - N/A   Clear
4:53 PM 82.0 °F 83.0 °F 62.1 °F 51% - 10.0 mi Variable 3.5 mph - N/A   Clear
5:53 PM 81.0 °F 81.1 °F 57.9 °F 45% - 10.0 mi ESE 9.2 mph - N/A   Clear
6:53 PM 80.1 °F 80.6 °F 57.9 °F 47% 29.95 in 10.0 mi East 8.1 mph - N/A   Clear
7:53 PM 73.9 °F - 59.0 °F 59% 29.96 in 10.0 mi SE 4.6 mph - N/A   Clear
8:53 PM 71.1 °F - 61.0 °F 70% 29.98 in 10.0 mi East 4.6 mph - N/A   Clear
9:53 PM 69.1 °F - 60.1 °F 73% 30.00 in 10.0 mi East 4.6 mph - N/A   Clear
10:53 PM 69.1 °F - 60.1 °F 73% 30.00 in 10.0 mi East 5.8 mph - N/A   Clear
11:53 PM 66.0 °F - 61.0 °F 84% 30.01 in 10.0 mi ESE 6.9 mph - N/A   Clear